KH6DH-13 Weather Reports


time (UTC)temp
F
wind
direction
speed
knots
gust
knots
rain 1hr
in
rain 24hr
in
rain mn
in
humidity
%
barometer
mb
20260504150618 72 76 2.6 6.1 0.00 0.03 0.00
20260504140612 72 135 0.9 6.1 0.00 0.03 0.00
20260504130600 73 46 0.9 3.5 0.00 0.03 0.00
20260504110548 73 113 1.7 4.3 0.00 0.03 0.00
20260504100542 73 127 0.9 5.2 0.01 0.03 0.00
20260504081531 74 290 0.0 2.6 0.00 0.00 0.02
20260504080530 74 41 1.7 7.8 0.00 0.00 0.02
20260504050541 76 129 3.5 8.7 0.00 0.00 0.01
20260504050508 76 129 3.5 8.7 0.00 0.00 0.01
20260504045507 76 70 2.6 7.8 0.00 0.00 0.01
20260504044503 77 314 3.5 7.8 0.00 0.00 0.01
20260504043502 77 359 3.5 7.0 0.00 0.00 0.01
20260504042501 77 32 3.5 10.4 0.00 0.00 0.01
20260504041500 79 76 2.6 9.6 0.00 0.00 0.01
20260504040459 79 210 1.7 5.2 0.00 0.00 0.01
20260504035458 81 39 2.6 9.6 0.00 0.00 0.01
20260504034457 83 343 3.5 9.6 0.00 0.00 0.01
20260504033456 88 58 5.2 10.4 0.00 0.00 0.01
20260504032455 88 359 5.2 7.8 0.00 0.00 0.01
20260504031454 85 60 2.6 8.7 0.00 0.00 0.01
20260504030453 85 73 3.5 11.3 0.00 0.00 0.01
20260504025452 86 55 3.5 11.3 0.00 0.00 0.01
20260504024451 86 339 3.5 11.3 0.00 0.00 0.01
20260504023450 85 35 3.5 10.4 0.00 0.00 0.01
20260504022449 87 107 4.3 9.6 0.00 0.00 0.01
20260504021448 84 66 3.5 11.3 0.00 0.00 0.01
20260504020447 85 94 2.6 9.6 0.00 0.00 0.01
20260504015446 84 82 5.2 11.3 0.00 0.00 0.01
20260504014445 84 356 4.3 10.4 0.00 0.00 0.01
20260504013444 84 152 1.7 10.4 0.00 0.00 0.01
20260504012443 84 28 4.3 9.6 0.00 0.00 0.01
20260504011442 86 46 5.2 11.3 0.00 0.00 0.01
20260504010441 86 93 7.8 13.9 0.00 0.00 0.01
20260504005440 84 56 6.1 13.9 0.00 0.00 0.01
20260504004439 84 53 5.2 12.2 0.00 0.00 0.01
20260504003438 84 14 6.1 15.6 0.00 0.00 0.01
20260504002437 84 107 7.0 13.9 0.00 0.00 0.01
20260504001436 84 63 2.6 14.8 0.00 0.00 0.01
20260504000435 84 79 3.5 8.7 0.00 0.00 0.01
20260503235434 84 91 3.5 13.9 0.00 0.00 0.01
20260503234433 83 89 4.3 11.3 0.00 0.00 0.01
20260503233432 83 77 7.8 12.2 0.00 0.00 0.01
20260503232431 84 45 6.1 13.0 0.00 0.00 0.01
20260503231430 84 63 3.5 10.4 0.00 0.00 0.01
20260503230429 84 104 4.3 7.0 0.00 0.00 0.01
20260503225428 84 115 3.5 7.8 0.00 0.00 0.01
20260503224427 82 80 7.0 13.0 0.00 0.00 0.01
20260503223426 82 63 3.5 13.0 0.00 0.00 0.01
20260503222425 83 38 5.2 12.2 0.00 0.00 0.01
20260503221424 82 113 6.1 11.3 0.00 0.00 0.01
20260503220423 82 155 3.5 9.6 0.00 0.00 0.01
20260503215422 82 342 5.2 9.6 0.00 0.00 0.01
20260503214421 82 86 6.1 7.8 0.00 0.00 0.01
20260503213420 82 98 5.2 8.7 0.00 0.00 0.01
20260503212419 81 77 2.6 9.6 0.00 0.00 0.01
20260503211418 81 93 1.7 9.6 0.00 0.00 0.01
20260503210417 80 104 5.2 8.7 0.00 0.00 0.01
20260503205416 79 252 2.6 8.7 0.00 0.00 0.01
20260503204415 80 42 5.2 12.2 0.00 0.00 0.01
20260503203414 79 56 4.3 8.7 0.00 0.00 0.01
20260503202413 78 28 2.6 7.8 0.00 0.00 0.01
20260503201412 77 79 3.5 7.8 0.00 0.00 0.01
20260503200411 77 24 2.6 10.4 0.00 0.00 0.01
20260503195410 76 15 2.6 7.0 0.00 0.00 0.01
20260503194409 76 86 2.6 7.0 0.00 0.00 0.01
20260503193408 75 84 0.9 3.5 0.00 0.00 0.01
20260503192407 75 69 3.5 7.8 0.00 0.00 0.01
20260503191406 76 31 2.6 6.1 0.00 0.00 0.01
20260503190358 76 108 2.6 7.0 0.00 0.00 0.01
20260503185355 75 45 3.5 7.0 0.00 0.00 0.01
20260503184354 75 108 2.6 7.8 0.00 0.00 0.01
20260503183353 75 14 1.7 9.6 0.01 0.00 0.01
20260503182352 74 59 0.9 5.2 0.01 0.00 0.01
20260503181351 75 93 2.6 8.7 0.01 0.00 0.01
20260503180350 73 56 3.5 6.1 0.01 0.00 0.01
20260503175349 73 0 1.7 6.1 0.01 0.00 0.01
20260503174348 73 309 0.9 3.5 0.01 0.00 0.01
20260503173347 72 80 4.3 7.0 0.00 0.00 0.01
20260503172346 72 86 1.7 6.1 0.00 0.00 0.00
20260503171345 73 14 0.0 7.0 0.00 0.00 0.00
20260503170344 73 32 3.5 7.8 0.00 0.00 0.00